Regional Weather Roundup
Issued by NWS

Home | Current Version | Previous Version | Graphics & Text | Print | Product List | Glossary On
Versions: 1 2 3 4 5 6 7 8 9 10 11 12 13 14 15 16 17 18 19 20 21 22 23 24 25 26 27 28 29 30 31 32 33 34 35 36 37 38 39 40 41 42 43 44 45 46 47 48 49 50
000
ASUS43 KFSD 200310
RWRSD

WEATHER ROUNDUP FOR SOUTH DAKOTA
NATIONAL WEATHER SERVICE SIOUX FALLS SD
1000 PM CDT SAT APR 19 2014

NOTE: "FAIR" INDICATES FEW OR NO CLOUDS BELOW 12,000 FEET WITH NO
SIGNIFICANT WEATHER AND/OR OBSTRUCTIONS TO VISIBILITY.


SDZ001>005-009-010-012>017-200400-
NORTHWEST AND NORTH CENTRAL SOUTH DAKOTA

CITY           SKY/WX    TMP DP  RH WIND       PRES   REMARKS
BUFFALO          N/A     56  21  25 SE8       29.91R
FAITH            N/A     51  27  39 S10       29.99R
MOBRIDGE       CLEAR     42  27  55 CALM      29.96R
$$

SDZ012>016-024>037-041>051-057-063-072>074-200400-
SOUTHWEST AND SOUTH CENTRAL SOUTH DAKOTA

CITY           SKY/WX    TMP DP  RH WIND       PRES   REMARKS
RAPID CTY ARPT PTCLDY    46  30  53 SE6       30.00R
PIERRE         MOCLDY    54  26  34 S3        30.00R
CUSTER         PTCLDY    43  28  55 CALM      30.05R
ELLSWORTH AFB  PTCLDY    50  30  46 SE12      30.00R
PHILIP         MOCLDY    49  28  44 E7        30.01R
PINE RIDGE     PTCLDY    53  27  36 E8        30.01R
SPEARFISH      FAIR      45  34  65 S9        30.00R
WINNER         FAIR      52  20  28 SE8       30.02R
$$

SDZ004>011-016>023-039-040-200400-
NORTHEAST SOUTH DAKOTA

CITY           SKY/WX    TMP DP  RH WIND       PRES   REMARKS
ABERDEEN       PTCLDY    45  26  47 SW10      29.99R
WATERTOWN      MOCLDY    49  30  48 S6        30.01R
SISSETON         N/A     47  34  60 SW6       29.98R
$$

SDZ017-020-022-023-036>040-048>070-200400-
SOUTHEAST SOUTH DAKOTA

CITY           SKY/WX    TMP DP  RH WIND       PRES   REMARKS
SIOUX FALLS    CLOUDY    59  38  45 N5        30.02R
HURON          MOCLDY    55  30  38 SW6       30.01R
CHAMBERLAIN      N/A     54  24  31 E6        30.03R
MITCHELL       MOCLDY    54  27  35 W3        30.02R
YANKTON        MOCLDY    57  34  41 N8        30.02R
$$

ABBREVIATIONS USED IN REMARKS
   TC - TEMPERATURE IN CELSIUS
  WCI - WIND CHILL INDEX
   HX - HEAT INDEX
  VSB - VISIBILITY




USA.gov is the U.S. government's official web portal to all federal, state and local government web resources and services.